Wind_Speed
11 10 11 11 11 11 10 9 9 10 9 9 8 7 8 8 8 8 7 7 6 5 5 5 5 5 5 5 4 5 5 5 5 6 6 6 5 5 4 4 4 5 5 6 7 7 7 7 7 6 6 6 7 7 7 7 7 8 8 9 9 8 7 7 8 10 11 12 11 11 10 9 8 8 8 9 10 12 12 12 11 11 11 10 10
9 10 10 10 9 10 9 9 9 9 9 9 8 6 7 8 8 8 7 7 6 6 6 6 6 5 5 5 5 5 6 6 6 5 6 6 5 4 4 5 5 6 6 6 7 8 8 7 7 6 6 5 5 6 6 6 7 9 10 10 10 10 10 10 10 10 11 11 10 10 10 10 10 9 10 11 12 12 11 11 10 10 10 10 10
8 8 9 9 8 8 8 8 9 8 8 8 8 7 8 8 8 8 7 7 7 7 6 6 5 5 5 5 6 6 6 6 6 6 6 6 5 5 5 5 5 6 7 7 8 8 8 7 7 6 6 6 5 5 6 5 6 8 10 11 11 12 12 12 11 10 11 11 10 10 10 10 10 11 12 13 13 12 11 11 10 10 10 9 9
7 7 7 8 8 8 7 7 7 7 7 7 7 7 8 8 8 8 7 6 6 6 6 5 5 5 5 5 5 5 6 7 7 7 6 6 5 5 5 5 6 6 7 7 7 8 7 7 7 7 7 6 6 6 5 5 5 6 8 11 12 12 12 12 12 11 11 10 10 10 10 10 11 12 13 14 13 12 11 11 11 10 10 9 8
7 7 7 7 8 8 8 8 7 8 8 7 7 7 8 8 8 8 7 6 6 5 5 4 4 4 4 4 4 4 5 6 7 7 6 6 5 5 6 6 6 6 7 7 7 8 7 7 7 7 7 7 6 6 5 5 4 5 7 10 12 13 13 12 12 11 10 10 10 10 10 11 12 13 14 13 12 12 11 11 10 10 9 8 7
7 7 7 7 8 9 9 9 9 9 9 9 8 8 8 8 9 8 7 6 6 5 4 5 5 4 4 4 4 4 5 6 7 7 7 6 6 6 6 6 6 6 6 7 8 8 7 7 7 6 7 7 6 6 6 5 4 5 6 8 10 12 12 12 12 11 10 10 10 10 11 12 13 14 14 13 12 12 11 10 9 8 8 7 7
8 8 8 8 8 9 9 9 9 9 9 9 9 8 8 8 7 6 6 6 7 6 6 6 6 5 4 5 5 5 5 6 7 8 8 7 6 6 6 5 6 6 6 7 7 7 7 7 7 7 7 8 7 6 6 5 5 5 6 7 8 9 10 11 11 11 10 10 10 10 12 13 14 14 13 12 12 11 10 9 8 8 8 8 9
9 9 9 9 10 9 9 8 8 8 9 9 8 7 6 6 5 4 4 5 5 6 5 4 4 4 3 4 6 6 6 6 7 7 7 7 6 6 6 5 6 6 7 7 7 7 8 8 8 8 8 8 7 6 6 5 5 5 6 7 7 8 9 10 11 10 10 11 11 12 13 14 14 13 12 12 11 10 9 8 8 9 9 10 11
10 10 10 9 9 9 9 8 8 8 8 7 6 5 5 4 4 3 2 3 4 4 3 2 3 3 2 3 4 4 5 4 7 7 6 7 6 5 5 5 6 7 7 8 8 8 8 8 7 8 9 8 7 6 5 5 5 6 7 7 7 8 9 10 10 10 11 12 14 14 14 14 13 12 11 11 10 9 9 9 10 11 11 12 12
10 10 9 9 9 8 8 8 7 7 6 6 5 4 3 3 3 2 1 2 3 3 3 2 2 2 2 2 2 2 3 3 6 7 6 7 7 5 4 4 6 7 8 9 9 9 10 9 8 8 10 8 7 6 5 5 6 6 7 8 8 8 9 10 10 12 13 14 15 15 14 13 12 11 11 10 10 10 10 11 12 12 13 13 14
10 10 9 8 8 8 8 7 6 6 5 5 4 3 3 3 3 2 1 3 3 3 4 3 2 2 1 1 3 4 4 3 5 5 7 9 8 6 5 6 7 8 8 9 9 9 10 10 9 9 9 7 6 5 5 6 7 8 8 8 8 9 10 11 12 14 15 15 14 14 13 12 12 10 10 10 11 12 12 13 13 14 14 14 15
10 9 9 8 8 7 7 6 5 5 5 4 3 3 3 4 5 2 1 4 3 2 4 5 3 3 3 3 4 6 6 5 5 5 8 9 9 8 8 8 9 9 9 9 10 10 9 9 10 10 8 7 6 6 7 7 8 9 9 9 9 10 12 13 14 15 15 14 13 13 12 11 11 10 11 12 12 13 13 14 14 15 15 15 16
9 9 8 8 7 7 6 6 5 5 5 4 3 3 2 5 6 3 2 4 3 3 5 7 6 5 7 6 6 8 7 6 7 7 9 9 9 10 10 10 10 10 9 9 10 10 10 9 9 10 8 7 7 8 9 10 10 10 10 10 10 12 14 14 15 15 14 13 12 12 11 11 11 12 13 13 13 14 14 15 15 15 15 16 16
10 8 8 7 6 6 6 6 6 5 5 4 4 3 3 7 8 4 4 5 4 5 6 8 9 8 9 8 7 8 8 8 9 10 10 10 10 11 12 11 10 10 9 9 9 9 9 10 9 9 8 8 9 10 11 12 11 11 11 12 13 14 15 15 14 14 13 12 12 11 11 12 12 13 14 14 14 15 15 14 14 14 15 16 16
10 8 7 6 6 6 7 7 6 5 5 5 5 4 4 8 10 6 6 8 6 6 8 9 9 10 10 9 8 9 9 10 11 11 11 11 11 12 12 11 10 10 9 9 9 8 9 9 9 8 9 10 11 11 13 13 13 13 14 14 14 15 14 14 14 13 13 12 12 12 13 13 13 14 14 15 14 14 14 14 14 15 16 16 15
9 8 6 6 6 7 7 8 7 6 6 7 7 6 6 10 12 8 8 9 8 9 10 10 10 10 11 10 9 10 11 12 12 12 12 12 12 12 12 11 11 10 10 9 9 9 9 9 8 9 10 12 12 13 14 14 15 15 16 15 15 15 14 14 14 13 12 12 12 13 14 14 14 15 15 15 14 14 14 14 15 15 16 15 14
8 7 7 7 7 8 8 8 8 7 8 9 8 7 7 11 13 11 9 10 11 11 12 12 12 11 11 11 10 11 12 12 13 13 13 14 13 13 12 12 11 11 10 10 10 10 9 9 10 11 13 14 14 15 16 16 17 17 16 15 15 14 14 14 14 13 12 13 13 14 15 15 15 15 14 14 14 14 14 15 15 15 15 14 13
7 7 7 7 8 8 9 9 8 8 9 10 9 8 8 12 14 12 11 11 12 12 13 13 12 12 12 11 11 12 12 12 13 14 14 15 14 14 13 13 13 12 12 11 11 10 10 11 12 14 15 16 16 17 17 17 17 16 15 15 14 14 14 14 14 13 13 14 14 15 15 15 14 14 14 14 14 14 15 15 15 15 14 13 12
7 7 7 8 9 9 9 9 9 9 11 11 10 9 9 11 14 14 13 12 11 12 13 12 12 13 13 13 13 12 12 13 14 15 15 15 15 15 15 15 14 13 12 12 12 12 12 13 15 16 17 18 18 18 17 17 16 15 14 14 14 14 14 14 14 14 14 14 15 15 15 14 13 13 13 14 14 14 15 15 15 15 14 12 12
7 8 8 9 9 10 10 10 10 10 12 12 11 10 9 11 14 15 15 13 12 13 13 12 12 14 14 13 13 12 13 14 15 16 16 16 16 16 16 16 14 13 13 13 13 13 14 16 17 17 18 18 18 17 17 16 15 14 13 14 14 14 14 14 14 14 14 14 15 14 14 13 13 13 13 14 14 15 15 15 14 14 13 12 11
8 8 9 9 10 10 11 11 10 11 12 12 12 11 10 11 13 15 16 14 14 14 13 12 13 14 14 14 13 13 14 15 16 17 17 17 17 17 17 15 14 14 15 15 15 16 16 17 18 18 18 18 17 16 16 15 14 13 13 14 14 15 15 15 15 15 15 14 14 14 14 13 13 13 14 14 14 15 15 14 13 13 12 12 11
9 8 9 9 10 11 12 11 11 11 12 12 13 12 11 12 12 14 15 15 15 15 13 12 14 15 15 15 14 14 15 16 17 17 18 18 18 18 17 16 16 16 17 18 18 18 18 18 18 17 17 17 16 16 15 14 14 15 15 16 16 16 16 16 15 15 15 14 14 14 14 14 13 14 14 15 15 14 14 13 13 12 12 11 11
9 9 9 10 10 11 12 11 11 11 12 12 13 13 13 13 13 14 15 16 17 15 14 14 15 16 16 16 16 16 17 18 18 18 19 19 18 18 17 18 18 18 18 19 19 19 18 18 17 16 16 16 16 16 16 16 17 17 17 17 17 17 16 16 15 15 15 14 14 14 14 14 14 15 15 15 14 14 13 12 12 12 12 12 12
10 10 10 10 10 11 12 11 11 11 11 11 12 13 13 14 14 15 16 17 17 16 16 15 16 16 17 17 17 18 19 20 19 19 19 18 18 19 19 19 19 19 19 19 18 18 18 17 17 16 15 15 16 17 17 18 18 18 17 17 17 16 16 15 15 15 15 15 15 15 15 16 15 16 15 15 14 14 13 13 12 12 12 13 13
11 11 11 10 11 11 11 11 11 11 10 11 12 13 14 15 16 16 17 17 17 18 17 17 17 17 17 18 18 19 20 20 19 19 18 18 19 20 21 20 19 19 19 18 18 17 17 17 17 16 15 15 16 17 17 18 18 17 17 17 16 16 15 15 15 15 15 15 16 17 17 17 17 16 16 15 15 14 14 14 13 13 13 14 14
11 11 11 11 10 10 10 9 10 10 10 11 12 14 15 17 17 18 18 19 19 19 19 18 18 18 18 18 19 19 19 19 19 19 19 19 20 21 21 21 20 19 19 18 18 18 18 17 17 16 16 16 16 16 16 17 17 17 17 17 16 15 15 15 15 16 16 16 17 18 18 18 18 18 17 17 16 15 15 15 15 15 15 15 15
12 12 11 11 10 10 9 9 10 11 11 12 13 15 17 18 19 19 20 20 21 21 20 19 19 18 18 18 19 19 19 20 20 20 20 20 21 21 20 20 20 19 19 18 18 18 18 17 17 16 16 16 16 15 15 16 17 17 17 16 16 15 15 16 16 17 17 18 18 19 19 19 19 19 18 18 17 16 16 16 16 15 15 14 14
12 12 12 10 10 10 10 10 11 12 12 13 14 16 18 19 20 20 21 21 22 22 21 21 20 20 19 19 19 20 20 21 22 22 21 21 20 20 20 19 19 18 17 17 18 19 19 18 17 16 16 17 16 15 15 16 17 17 16 16 15 15 15 16 17 17 18 19 19 19 20 20 20 19 18 18 18 17 17 16 16 15 15 14 14
12 12 12 11 10 10 10 11 12 12 13 14 15 16 18 19 20 20 21 21 22 22 22 21 21 21 20 20 20 21 21 22 22 22 21 21 20 20 19 19 18 18 17 17 18 19 19 18 17 17 17 17 16 16 15 15 16 16 16 15 14 15 16 16 17 17 18 19 19 20 20 19 19 19 18 18 18 17 17 16 16 15 15 15 15
12 12 12 12 11 11 11 11 12 13 13 14 15 16 17 18 19 19 20 21 21 21 21 21 21 21 20 20 20 21 21 21 21 21 21 21 20 20 19 18 18 18 17 17 18 19 19 19 19 18 18 17 17 16 15 14 16 16 15 14 14 15 15 16 16 17 18 19 19 19 18 18 18 18 18 18 17 17 17 17 16 16 16 16 16
12 12 12 12 12 11 11 11 12 13 14 14 14 15 17 17 18 18 19 19 20 20 20 20 20 20 20 19 19 20 20 20 20 20 20 20 20 19 18 17 17 18 17 17 18 18 18 19 19 19 18 17 16 16 14 14 15 15 14 14 13 14 15 15 15 15 16 17 17 17 17 17 17 17 17 17 17 18 17 17 17 16 17 17 17
13 12 11 12 11 11 11 11 12 13 14 14 14 15 16 17 17 17 17 18 18 18 19 19 19 19 19 18 18 18 18 19 19 19 19 19 18 18 17 17 17 18 18 17 17 18 18 19 19 19 18 17 16 15 14 13 14 14 13 13 13 13 14 15 14 14 14 15 16 16 16 16 16 15 15 16 16 17 17 17 16 16 17 17 17
13 12 11 11 11 11 11 12 13 13 14 14 14 14 15 16 16 16 16 16 17 17 17 18 18 18 18 18 18 18 17 18 18 19 18 18 17 17 17 17 17 18 18 18 17 17 17 18 18 19 18 17 16 15 13 13 13 13 12 12 12 13 14 13 13 13 13 13 14 14 14 15 15 14 14 14 15 15 16 16 16 16 17 17 17
13 12 12 11 11 11 11 11 12 13 13 13 13 13 14 14 15 15 15 15 15 16 16 16 16 17 17 17 17 17 17 17 17 18 18 17 17 17 17 17 17 17 18 18 17 17 17 17 17 18 18 18 17 15 13 12 12 12 11 11 11 12 13 12 12 12 12 12 12 12 13 13 13 13 13 13 13 14 15 16 16 16 16 17 18
12 12 12 12 12 11 11 11 12 12 13 13 13 13 13 13 13 14 14 14 14 14 15 15 15 15 16 16 16 16 16 16 17 17 17 16 16 17 16 16 16 16 17 17 16 16 16 17 17 17 17 18 17 15 14 13 12 11 10 10 10 11 12 11 11 10 10 10 10 11 11 12 11 11 11 12 12 13 14 15 15 16 16 17 18
13 12 12 13 12 12 11 11 11 12 12 13 13 13 13 13 13 13 13 13 13 14 14 15 15 14 15 15 15 15 15 15 16 17 17 16 16 16 15 15 15 15 16 16 15 15 16 16 16 16 17 18 17 15 14 13 12 11 9 9 9 10 11 10 9 9 8 8 9 10 10 10 10 10 10 11 11 12 13 14 14 15 16 17 18
13 12 12 12 12 12 12 12 11 11 11 12 12 13 13 13 13 13 13 13 13 13 14 14 14 14 13 14 15 15 15 14 15 15 16 16 15 15 14 14 15 15 15 15 14 14 15 15 15 15 16 17 17 16 14 13 12 11 9 8 8 8 9 9 8 7 7 7 8 8 8 8 8 9 9 10 10 11 12 13 14 15 16 17 17
13 13 12 12 12 12 13 13 12 11 11 11 11 12 13 13 13 13 13 13 13 13 13 14 14 13 13 13 13 15 15 14 14 14 15 15 15 14 14 14 14 14 14 13 13 13 14 14 14 14 14 15 16 16 15 14 12 10 8 7 7 7 7 7 7 6 5 6 6 6 7 7 7 8 8 9 9 10 11 12 13 14 15 16 16
13 13 13 12 12 12 12 13 13 12 11 11 11 12 12 13 13 13 14 13 13 13 13 13 13 12 12 12 12 13 14 14 14 14 14 14 14 14 13 13 12 12 12 11 12 12 13 13 13 12 13 13 15 15 15 14 13 10 8 6 6 5 5 5 5 4 4 4 5 5 5 5 5 6 7 8 9 9 11 12 13 14 14 15 16
13 14 13 13 12 12 12 12 12 12 12 11 11 11 12 13 13 13 14 14 14 13 14 13 12 12 12 12 12 12 12 13 13 13 13 13 13 13 13 13 12 11 10 11 11 11 11 11 11 11 11 11 13 14 13 13 12 11 8 6 5 4 3 3 3 2 2 3 3 3 3 3 4 4 6 7 8 9 10 11 12 14 14 15 15
13 13 13 13 12 12 11 11 12 12 11 11 11 11 12 12 12 13 13 14 14 14 14 14 12 12 11 12 12 11 12 12 12 12 13 12 12 12 12 12 12 11 11 10 10 9 9 9 9 10 10 10 10 11 12 12 11 10 8 6 4 4 3 2 2 1 1 1 1 2 2 2 3 4 5 7 8 10 11 12 13 13 14 14 14
12 13 13 13 12 12 11 11 11 12 12 12 11 11 12 12 12 12 13 13 14 14 14 13 12 12 12 12 11 11 11 11 11 12 12 12 11 11 11 11 11 11 11 10 10 9 8 7 8 9 10 10 10 9 9 10 10 9 8 6 4 3 2 2 1 1 1 1 1 2 2 3 3 4 5 7 8 10 11 12 12 13 14 14 14
12 12 13 13 12 12 12 12 11 12 13 12 11 11 11 12 12 12 12 12 13 14 14 13 12 12 13 13 12 11 11 11 11 11 11 11 11 10 10 10 10 10 10 10 10 9 8 7 7 8 10 10 10 9 8 8 9 9 8 6 5 3 2 1 2 2 2 2 3 4 4 5 6 6 6 7 9 10 11 12 12 13 14 14 14
12 12 12 13 13 13 13 12 12 12 12 12 12 11 11 12 12 12 12 12 12 13 13 13 12 13 13 13 13 12 11 11 11 11 11 11 11 10 10 10 9 9 8 8 8 8 8 7 7 7 9 9 9 9 8 7 7 8 8 7 6 4 3 2 2 2 2 3 4 4 5 6 7 7 8 8 9 10 11 11 12 13 13 14 13
13 12 12 12 12 12 12 13 13 12 12 12 11 11 11 12 12 12 12 13 13 12 12 12 13 13 13 14 13 13 12 11 11 11 11 10 10 10 9 9 9 8 8 7 7 7 7 7 7 7 8 8 8 8 8 7 6 6 6 6 5 4 3 3 2 2 3 4 4 5 5 6 7 8 8 9 10 11 12 12 12 13 13 13 13
12 13 12 12 12 12 13 13 13 13 12 12 12 12 12 12 11 11 11 12 12 12 12 12 12 13 13 13 13 13 12 11 10 10 11 10 10 9 9 9 9 8 8 8 7 7 7 7 7 7 8 8 7 7 7 6 5 5 5 4 3 3 3 3 3 3 3 4 4 5 6 7 8 9 10 11 12 13 13 14 14 13 13 12 12
13 13 13 13 13 13 13 13 13 13 12 12 13 12 12 12 12 12 11 11 11 12 12 12 11 12 12 12 12 12 11 11 10 10 10 10 10 9 9 9 8 8 8 8 8 7 7 7 7 7 7 7 7 7 7 6 6 5 4 3 2 1 2 2 3 4 4 4 5 6 7 8 9 10 11 12 12 13 13 14 14 13 11 10 9
14 14 15 15 14 13 12 12 12 12 12 12 12 12 12 11 12 12 12 11 11 11 11 11 11 11 11 11 11 10 10 10 10 10 9 9 9 9 9 8 8 8 8 7 7 7 7 7 7 7 6 7 7 7 6 6 5 4 3 2 2 1 1 2 3 4 5 5 5 6 7 8 9 10 11 11 12 12 12 12 12 11 10 9 8
15 15 15 15 14 12 11 11 11 11 11 11 11 11 11 11 11 11 11 11 11 11 11 11 11 10 10 10 10 9 8 9 9 8 8 8 7 7 8 8 7 7 7 6 6 6 6 6 6 6 5 6 7 7 6 6 5 4 3 2 2 1 1 1 2 4 5 6 6 7 8 8 9 10 11 11 10 10 10 11 11 11 10 9 7
15 15 15 14 13 12 12 12 11 11 11 11 11 11 11 11 11 11 10 9 9 9 10 11 11 10 9 9 9 8 8 8 8 7 7 7 7 6 6 7 7 7 6 6 6 6 6 5 5 5 5 6 6 7 6 6 5 4 3 3 2 2 2 2 3 4 5 6 7 8 8 8 9 10 10 10 10 9 9 9 10 10 9 8 8
15 16 15 14 13 13 12 12 12 11 11 11 11 11 11 11 11 10 10 9 8 7 7 8 9 10 9 8 8 8 7 8 7 7 7 7 6 6 6 6 6 6 6 6 5 5 5 5 5 4 4 5 5 6 6 5 5 4 4 3 3 4 4 4 4 4 5 7 7 7 7 8 9 9 9 9 9 8 8 9 9 9 9 9 8
Wind_Direction
110 113 110 111 114 117 117 121 124 125 129 131 132 139 140 137 133 129 129 129 131 134 139 138 137 141 139 133 126 125 132 139 139 140 143 139 135 138 150 162 177 182 174 167 163 159 151 146 141 130 125 116 110 112 112 121 118 112 113 113 115 119 124 127 122 116 113 114 118 118 115 112 107 102 100 101 105 107 107 105 102 100 98 99 100
109 115 114 118 120 120 125 130 128 127 132 130 129 140 140 135 135 135 137 141 145 147 148 143 141 144 142 133 122 125 133 137 137 137 138 135 137 146 159 172 181 177 168 169 165 156 147 140 133 128 128 121 114 109 105 108 107 110 115 114 116 121 124 125 122 115 110 109 109 108 107 109 107 105 106 108 108 107 105 103 102 100 99 99 99
106 116 118 121 122 125 130 131 129 130 132 130 133 141 135 132 132 132 136 142 146 148 149 144 142 146 146 139 129 131 137 139 138 141 142 140 145 152 160 171 175 169 165 166 162 153 144 135 132 132 129 125 118 103 93 87 93 108 114 112 116 121 125 125 122 115 109 106 103 101 101 104 108 109 111 111 109 107 106 104 103 102 101 100 97
104 113 118 119 123 128 129 126 127 130 128 128 134 135 128 126 126 126 130 136 144 144 139 134 131 138 149 145 138 138 143 144 143 146 148 146 147 153 158 164 167 160 160 160 155 150 142 137 139 140 132 127 117 105 100 93 95 101 105 112 118 122 125 124 123 118 112 108 103 100 100 101 108 112 111 110 109 107 105 103 103 102 101 99 95
109 114 119 120 125 129 128 128 128 125 124 129 133 130 127 124 123 124 130 137 136 121 114 121 128 143 154 144 138 143 151 147 143 147 149 148 147 153 157 158 156 149 154 154 150 149 143 138 140 139 130 121 109 101 100 96 92 92 101 113 119 123 126 125 124 119 111 106 100 99 100 102 107 111 110 108 107 104 104 103 103 103 102 98 95
113 115 116 118 122 125 126 128 127 126 129 132 131 128 124 121 121 125 132 136 125 118 140 157 155 165 159 147 156 158 161 152 148 152 153 152 152 160 162 154 147 143 149 150 148 147 143 139 138 133 123 114 103 95 94 91 90 93 102 112 118 122 124 124 121 115 108 103 98 99 104 106 108 110 109 107 105 104 103 103 102 99 95 92 92
117 116 115 116 118 119 121 123 124 126 127 126 125 122 119 117 118 125 134 130 126 149 187 189 176 177 161 162 180 176 170 163 159 161 154 152 158 163 166 154 142 142 144 145 146 143 139 136 134 127 114 106 102 96 93 92 93 97 103 111 113 115 116 115 114 112 110 105 101 103 107 109 109 109 108 106 105 104 103 101 98 93 93 95 97
121 121 121 123 125 125 125 126 126 126 125 123 122 121 120 120 121 129 136 133 137 165 196 210 202 191 171 179 194 188 175 166 165 168 153 148 160 163 162 155 141 142 144 144 143 139 135 129 126 120 108 101 99 94 90 92 97 101 106 113 112 110 108 107 109 111 109 104 103 105 108 109 108 108 106 103 101 100 98 96 95 96 99 100 100
121 120 121 124 124 125 124 122 120 119 120 119 118 118 119 120 122 123 132 142 147 164 187 213 212 210 215 205 206 192 169 165 174 171 149 141 151 153 155 155 143 142 143 141 141 140 134 124 117 111 103 97 97 97 96 102 110 110 114 117 115 111 106 105 105 105 102 102 104 107 108 108 107 105 102 100 98 96 96 97 99 100 101 101 102
116 115 115 117 118 119 118 114 111 111 113 111 112 112 114 115 113 111 120 136 136 161 177 189 194 207 236 208 181 159 131 157 183 167 128 122 124 124 133 138 134 134 136 135 137 139 132 122 114 106 100 98 100 107 112 118 118 116 117 118 116 111 105 103 102 101 102 103 106 107 108 108 105 102 100 97 95 96 97 99 101 102 102 103 103
110 110 110 111 112 114 113 111 110 109 109 107 111 109 110 105 94 95 98 103 118 167 160 132 140 171 169 131 134 120 98 118 169 151 106 102 107 111 116 123 126 125 128 131 133 131 125 120 115 107 102 102 105 111 118 121 120 117 115 116 115 111 105 103 103 103 104 105 106 107 106 103 100 98 95 93 94 96 98 100 101 103 103 103 105
104 106 105 105 106 106 105 101 98 94 93 93 98 95 104 101 87 70 43 79 99 144 121 103 103 118 102 100 112 109 105 116 139 126 96 97 106 112 119 126 127 124 127 130 127 118 115 117 113 107 103 105 109 113 119 122 121 117 115 115 115 111 107 106 106 105 106 107 106 103 100 97 94 92 91 93 96 97 99 101 103 104 104 106 109
103 105 104 105 106 104 99 93 89 85 83 82 85 86 98 102 93 80 65 80 91 94 99 102 105 106 103 105 107 111 123 125 121 108 96 102 110 116 124 130 128 126 130 130 123 117 120 117 105 100 100 105 110 112 117 121 122 119 118 117 114 111 109 109 108 108 106 104 101 98 94 91 91 91 93 95 96 98 100 102 103 104 106 109 111
107 108 107 109 110 107 101 96 92 89 89 89 87 83 92 99 97 99 98 98 100 99 103 107 113 112 106 112 118 120 127 119 107 100 98 107 115 121 128 130 128 127 129 125 121 122 119 107 94 93 98 103 108 113 118 121 123 121 119 117 115 114 114 113 110 107 103 99 96 94 91 91 92 94 95 95 97 99 101 102 103 105 108 111 110
112 115 116 116 117 111 106 100 94 90 92 94 92 91 96 97 101 115 108 102 105 103 100 105 113 110 106 114 121 118 115 105 98 97 103 112 118 125 129 129 128 127 127 124 121 115 103 95 93 97 102 107 111 118 121 122 122 120 118 118 118 118 116 112 107 103 101 99 97 94 93 94 95 95 95 96 98 100 100 101 104 107 109 109 106
120 122 122 119 117 110 106 102 99 100 100 98 96 97 96 95 101 112 110 102 99 96 91 93 98 98 104 111 110 106 102 98 98 102 108 114 122 128 128 126 124 123 124 120 114 106 99 98 101 105 109 112 116 119 121 121 120 120 121 121 119 117 113 108 104 102 102 101 98 96 96 97 97 96 97 98 99 100 100 102 105 107 107 106 103
124 122 121 117 111 106 104 102 103 106 102 98 95 91 86 90 99 106 106 99 93 96 96 93 95 95 100 104 101 99 97 98 101 106 112 119 126 128 125 123 122 122 119 113 109 105 105 108 111 114 115 115 116 118 119 119 119 120 120 119 117 114 111 108 105 104 103 101 100 99 99 98 99 99 99 99 99 99 100 102 104 105 104 101 98
120 116 115 111 108 104 102 102 105 105 101 99 94 89 83 88 101 104 97 93 90 97 103 102 104 103 100 101 98 97 98 103 106 110 116 122 125 125 124 124 124 123 119 114 111 112 114 117 119 119 118 118 117 117 118 117 117 118 118 117 115 113 110 108 105 104 104 103 101 100 100 100 100 101 100 99 98 99 100 101 102 101 98 95 92
115 113 113 111 109 104 102 104 106 105 101 100 97 93 90 91 101 104 96 93 95 97 99 101 104 102 100 100 99 101 106 111 113 116 120 123 125 126 127 126 125 122 118 116 116 117 120 122 121 120 118 118 116 116 116 115 116 117 117 116 113 110 107 105 104 104 103 103 102 101 100 100 101 100 98 97 98 100 101 100 99 98 96 92 87
117 116 117 115 109 104 103 105 105 101 98 97 98 96 93 92 97 104 104 101 101 97 94 96 98 97 97 98 102 109 114 116 117 119 121 124 127 128 127 125 121 118 116 116 117 118 120 121 120 119 117 116 115 115 114 114 114 115 113 110 108 105 104 103 104 104 104 103 102 101 100 100 98 96 96 97 99 100 99 98 98 96 93 88 83
118 118 117 112 105 103 102 103 101 96 95 98 101 99 92 89 92 101 106 104 101 95 95 98 99 99 99 100 103 110 114 115 117 120 123 126 127 126 122 119 116 114 115 115 117 117 117 118 118 117 116 114 114 112 112 111 110 107 104 104 104 103 103 104 104 104 103 102 102 100 99 97 95 95 96 98 98 98 97 97 96 93 89 83 77
116 114 112 108 104 102 101 102 98 94 97 102 104 100 92 87 87 94 100 100 98 96 100 102 101 103 104 102 102 105 109 113 117 120 123 123 121 119 116 114 113 113 114 115 117 117 117 116 116 114 112 111 110 108 106 104 103 101 101 102 102 102 103 103 103 103 102 102 101 99 97 97 97 98 98 98 97 96 95 94 92 88 83 77 71
115 110 104 102 102 100 101 102 98 96 99 103 102 98 93 90 88 90 93 97 101 105 107 103 102 104 104 103 104 107 111 114 117 118 118 117 115 113 112 113 113 114 114 114 116 116 114 112 110 107 105 105 105 103 101 101 100 100 102 102 102 102 102 102 102 102 102 101 99 98 99 100 100 99 97 96 95 93 92 90 86 82 77 71 66
113 106 101 99 99 99 100 100 99 98 99 102 100 98 97 95 93 92 93 97 105 109 107 104 105 107 108 109 111 112 114 114 115 115 113 113 112 113 114 115 115 115 114 114 114 113 110 106 102 99 98 99 100 100 100 101 101 101 102 101 100 99 99 99 100 100 100 100 101 101 101 100 98 94 93 92 91 89 87 84 79 75 72 68 64
111 104 99 98 98 99 99 99 100 102 104 105 103 101 100 97 95 94 96 98 101 102 102 104 107 110 113 115 115 114 112 111 111 111 110 112 114 115 115 115 115 114 112 112 110 107 103 100 97 96 96 96 98 99 100 101 102 102 100 98 97 96 96 98 99 99 100 101 101 100 98 95 92 89 88 86 84 82 80 77 74 71 68 65 61
110 105 100 99 99 98 96 96 99 103 105 104 104 104 101 97 95 96 97 97 97 97 98 100 103 107 111 113 113 111 109 109 109 109 111 113 114 115 114 114 113 112 112 110 106 101 97 96 97 99 100 99 98 99 100 101 101 100 98 96 95 94 96 98 99 100 100 99 97 95 94 91 89 86 83 81 79 77 75 74 71 67 64 61 57
108 105 102 101 100 97 94 93 96 99 100 100 102 102 100 98 95 95 95 96 95 95 96 97 99 102 104 106 106 106 107 108 110 111 113 114 114 113 112 112 112 112 111 108 104 100 98 98 99 100 101 100 97 97 98 99 100 100 98 96 95 96 98 99 99 99 98 96 95 94 92 90 88 85 82 80 77 74 72 69 66 63 60 56 53
110 109 107 105 102 98 95 92 91 94 95 97 98 98 97 96 95 94 94 96 96 96 97 97 97 98 99 101 102 105 107 109 110 112 113 113 113 112 112 112 111 110 108 105 104 102 101 101 101 102 101 100 98 96 96 99 101 100 99 98 98 99 99 98 98 98 96 95 94 92 90 88 87 85 82 78 74 70 67 63 61 59 57 55 52
116 115 113 111 106 100 96 92 91 93 95 95 96 96 96 97 96 96 96 96 98 98 98 98 98 98 98 100 102 104 107 110 111 112 113 113 113 112 112 111 109 106 103 102 102 102 102 102 103 102 101 100 99 97 96 100 102 100 99 98 98 98 98 99 99 99 97 95 93 91 89 88 86 83 79 75 71 67 64 61 60 59 58 55 53
120 120 119 115 109 103 99 95 93 96 97 96 96 97 97 98 98 98 98 98 100 101 101 101 100 100 101 102 104 106 109 111 113 114 114 114 114 114 112 110 107 104 102 102 101 102 103 105 104 103 101 98 97 97 97 100 103 102 101 99 98 98 99 100 99 98 98 96 93 90 89 87 83 80 75 72 69 66 64 62 62 61 59 55 52
119 119 120 116 109 105 103 100 100 100 100 100 99 100 99 99 100 99 100 100 102 104 104 104 103 104 105 107 108 110 113 114 115 115 115 116 116 114 112 110 107 104 103 101 99 101 104 105 105 103 102 99 97 97 98 101 103 104 103 101 99 99 100 100 99 97 96 95 93 91 88 84 80 75 71 68 65 64 63 62 62 61 58 54 51
117 116 117 114 109 105 105 106 106 105 104 103 103 102 101 101 102 102 103 104 106 107 108 108 108 108 109 111 113 115 117 117 118 118 118 118 116 113 110 108 106 104 101 99 98 100 102 104 104 103 102 99 97 96 100 105 105 105 104 103 102 100 99 98 97 95 92 91 91 90 87 82 76 72 68 65 62 61 61 59 58 57 54 51 48
118 116 116 113 110 108 109 111 111 110 108 106 106 104 103 104 104 106 107 108 110 110 111 112 112 112 111 112 114 116 119 120 121 121 120 118 115 110 108 108 107 104 101 99 99 100 101 103 104 103 101 99 96 96 100 105 106 106 105 104 104 101 98 95 93 91 88 88 87 87 85 80 75 70 66 62 59 56 56 55 53 51 49 46 45
120 116 116 114 113 113 113 114 114 113 111 109 109 108 107 106 107 109 111 111 111 111 112 113 113 112 111 111 114 116 119 120 121 120 119 118 115 111 109 110 109 106 102 101 100 102 103 104 105 104 102 98 95 95 99 102 104 105 103 103 102 99 96 94 90 88 88 87 85 83 81 79 75 69 64 59 55 51 51 51 49 46 44 41 40
125 120 118 118 117 117 116 115 115 115 114 113 112 112 111 110 111 111 113 113 112 112 112 113 113 113 113 114 115 117 119 121 121 120 119 118 115 113 114 115 113 108 103 102 103 104 105 107 107 106 103 100 97 98 102 106 107 104 103 103 99 96 94 92 89 86 84 84 82 79 77 75 72 68 63 57 52 48 46 46 44 41 38 36 35
132 127 123 123 122 122 120 117 116 116 115 116 116 116 116 115 115 115 114 115 113 113 114 114 115 115 116 118 119 119 120 123 124 124 123 120 118 118 120 119 115 109 104 104 105 105 107 110 111 110 107 105 104 105 109 112 111 107 105 104 101 98 96 93 89 84 80 80 77 74 72 69 66 63 58 54 50 45 41 39 38 35 32 30 30
136 132 128 127 127 126 125 122 120 117 116 117 118 117 118 117 116 115 114 113 113 113 114 114 115 115 118 120 121 120 121 123 125 126 126 124 123 123 123 121 116 112 108 107 107 107 108 110 113 112 110 109 110 112 115 115 114 112 112 110 108 108 105 101 96 89 81 76 74 72 69 65 60 54 49 46 42 38 34 31 30 29 27 24 24
141 137 135 133 132 131 129 128 126 124 121 121 121 120 120 120 117 115 114 114 114 113 111 111 112 115 119 121 122 122 123 124 126 127 128 129 129 128 126 123 119 116 115 113 110 108 109 111 113 112 112 114 115 118 121 121 120 120 122 122 123 121 115 111 106 100 88 78 75 71 66 59 51 45 37 33 29 26 24 22 21 21 20 19 18
147 143 142 140 138 136 132 131 130 130 129 128 126 125 124 124 122 119 119 119 117 113 111 109 110 114 118 120 121 123 125 126 128 128 130 132 132 132 129 126 124 122 119 115 113 114 115 115 116 117 118 119 119 122 125 127 129 133 136 135 136 134 123 117 113 107 95 83 78 72 63 53 43 33 25 19 15 12 12 12 13 13 14 12 13
153 148 146 145 142 139 135 132 131 132 133 133 131 130 130 129 128 126 125 123 120 117 114 112 112 114 116 118 118 119 122 125 128 130 132 135 135 135 133 131 130 127 122 118 118 121 122 120 119 119 120 122 121 122 125 127 131 137 142 145 149 150 135 121 117 117 102 81 73 65 52 38 25 13 9 4 360 359 360 3 6 6 7 6 9
158 153 149 147 144 141 137 131 129 129 131 133 133 133 133 133 133 131 128 125 123 120 117 115 116 117 117 117 117 118 121 126 130 132 134 136 137 139 138 137 137 135 133 130 128 128 127 124 120 118 119 119 117 118 123 127 132 140 148 155 160 165 161 146 143 157 129 91 67 48 28 15 359 349 351 349 348 350 351 354 359 360 1 3 7
161 155 151 149 147 144 139 135 131 130 131 133 134 133 134 135 136 133 129 127 126 122 118 117 120 122 121 119 120 123 125 128 130 131 133 135 137 141 143 144 146 146 145 144 142 138 135 128 121 119 120 118 115 113 118 127 135 145 156 165 166 170 184 188 209 244 272 315 320 326 330 336 335 333 337 338 340 344 344 347 353 356 358 1 6
162 157 153 151 151 149 144 142 138 134 134 135 133 131 133 135 136 133 130 129 127 123 121 122 125 126 125 124 125 127 128 128 127 128 131 135 139 143 146 149 152 155 155 154 151 145 140 133 124 122 123 122 118 114 115 125 134 143 155 166 168 173 197 234 252 268 299 316 314 316 324 330 331 329 330 333 336 338 339 341 348 353 355 358 3
163 161 158 155 154 153 150 148 144 140 140 138 134 131 133 135 136 136 135 133 128 125 126 130 131 128 127 127 127 127 127 127 128 129 131 135 140 145 149 151 153 159 162 158 155 148 142 139 134 128 129 128 124 121 119 126 135 142 152 160 163 169 187 224 245 262 286 295 302 314 321 323 325 326 327 331 334 336 337 342 349 353 355 357 1
163 161 162 160 156 155 156 154 149 146 145 141 136 133 133 134 136 138 139 136 133 132 134 135 133 131 129 128 127 125 123 124 127 129 130 133 137 142 146 148 151 157 161 158 157 152 146 147 145 139 137 136 134 128 124 130 137 141 148 154 156 164 182 211 237 258 271 281 294 308 312 311 317 324 330 333 336 339 343 348 354 357 357 359 2
164 159 160 162 160 161 163 159 154 151 149 144 140 138 136 136 137 137 136 135 136 138 140 139 135 133 132 130 127 124 122 122 124 124 127 132 136 140 143 146 150 157 159 158 160 160 156 156 156 150 146 146 144 137 132 135 138 141 148 150 153 171 198 226 251 268 282 296 302 304 307 311 318 328 336 338 340 344 347 352 358 2 1 0 0
168 161 159 163 167 167 167 164 160 157 153 148 146 143 142 141 139 137 136 136 139 141 141 141 139 136 135 132 128 126 125 125 124 124 125 129 135 139 142 146 149 155 159 161 166 166 162 162 162 158 154 152 150 146 143 144 145 152 157 153 163 191 228 248 261 272 287 300 303 303 310 317 323 331 338 340 342 345 348 353 358 2 2 2 2
172 167 164 167 171 170 167 168 167 163 158 153 149 147 145 143 141 139 139 141 143 143 143 143 141 139 138 135 131 129 129 127 125 124 124 126 131 134 137 141 146 152 159 165 169 167 164 167 165 163 162 155 152 154 157 157 160 170 175 172 190 228 282 275 273 285 300 310 314 315 321 328 331 336 343 344 344 346 350 353 356 360 3 6 5
174 173 170 170 171 169 168 172 174 172 166 160 157 154 152 149 147 145 145 148 148 146 146 144 141 140 141 139 135 134 136 133 128 126 127 128 129 130 130 133 138 144 151 159 165 166 167 170 167 164 162 153 155 163 168 172 180 191 199 208 230 268 305 299 297 302 310 321 330 332 334 339 341 344 349 351 352 353 354 353 354 359 4 9 9
176 174 173 172 172 170 171 174 178 183 178 170 167 163 160 158 156 154 153 153 152 149 147 143 141 142 145 143 139 141 145 141 138 137 138 137 135 133 131 131 134 138 142 146 154 161 166 168 169 166 162 156 160 171 180 188 201 213 220 235 258 281 293 302 310 316 317 320 327 332 337 343 345 345 346 348 354 357 356 355 356 1 6 12 15
179 178 176 175 177 176 175 176 180 187 187 182 177 169 166 166 165 164 161 159 158 155 152 147 144 145 147 146 143 147 152 147 145 148 150 147 143 144 142 140 141 139 139 141 147 153 158 164 170 170 167 168 172 182 193 200 214 232 247 262 275 283 290 296 303 314 319 317 315 318 327 335 337 337 338 341 350 356 354 353 357 4 9 13 16
Height
5886 5887 5887 5887 5888 5888 5889 5890 5890 5891 5891 5892 5892 5893 5893 5892 5892 5892 5892 5892 5892 5892 5893 5894 5895 5896 5897 5897 5898 5898 5899 5899 5900 5900 5900 5899 5899 5899 5899 5900 5900 5901 5901 5901 5901 5901 5902 5903 5902 5902 5902 5902 5904 5904 5904 5905 5905 5905 5905 5905 5905 5905 5905 5905 5906 5907 5909 5909 5910 5910 5909 5909 5909 5909 5909 5909 5909 5910 5910 5911 5912 5912 5912 5912 5913
5887 5888 5888 5888 5889 5889 5890 5891 5891 5891 5892 5892 5892 5894 5894 5893 5893 5893 5893 5892 5892 5892 5893 5894 5895 5896 5897 5897 5898 5898 5898 5899 5900 5900 5900 5900 5900 5900 5900 5900 5901 5902 5901 5901 5901 5901 5902 5903 5903 5903 5903 5903 5903 5903 5904 5904 5904 5905 5906 5906 5906 5906 5906 5907 5907 5908 5909 5909 5910 5910 5910 5910 5910 5911 5911 5911 5911 5911 5912 5913 5913 5913 5913 5913 5913
5888 5888 5889 5889 5890 5890 5891 5891 5891 5891 5892 5891 5892 5894 5894 5894 5894 5893 5893 5893 5893 5893 5893 5894 5895 5896 5897 5897 5897 5898 5898 5898 5899 5900 5900 5900 5900 5900 5901 5901 5901 5902 5902 5901 5901 5902 5902 5902 5903 5903 5903 5903 5903 5903 5904 5903 5904 5905 5906 5907 5907 5907 5908 5908 5909 5909 5909 5909 5910 5911 5911 5911 5912 5912 5912 5913 5913 5913 5914 5914 5915 5915 5915 5915 5915
5889 5889 5889 5890 5890 5891 5892 5892 5892 5892 5892 5891 5893 5894 5894 5894 5894 5893 5893 5893 5893 5893 5894 5895 5896 5897 5897 5897 5897 5898 5898 5898 5899 5900 5900 5901 5901 5901 5901 5901 5901 5902 5902 5902 5902 5902 5903 5903 5904 5904 5904 5904 5904 5904 5905 5904 5904 5904 5906 5908 5909 5909 5909 5909 5910 5910 5911 5911 5912 5912 5912 5913 5913 5913 5913 5914 5915 5915 5916 5916 5916 5917 5917 5916 5916
5889 5890 5890 5890 5891 5891 5892 5892 5893 5893 5893 5893 5894 5894 5894 5894 5894 5894 5893 5894 5895 5896 5896 5896 5896 5896 5897 5898 5899 5899 5898 5899 5899 5900 5901 5901 5901 5902 5902 5902 5901 5902 5902 5903 5904 5904 5904 5904 5905 5905 5904 5904 5904 5905 5905 5905 5905 5905 5906 5908 5910 5911 5911 5911 5911 5912 5912 5912 5913 5913 5913 5914 5914 5915 5915 5915 5916 5916 5917 5917 5917 5918 5918 5917 5917
5890 5890 5891 5891 5892 5892 5893 5893 5894 5894 5894 5894 5895 5895 5895 5895 5894 5894 5894 5895 5898 5898 5896 5895 5895 5896 5898 5900 5900 5899 5899 5900 5899 5900 5901 5901 5902 5902 5902 5902 5902 5902 5903 5903 5904 5905 5905 5905 5905 5905 5905 5905 5905 5906 5906 5906 5906 5906 5906 5908 5910 5912 5912 5912 5912 5912 5913 5913 5913 5914 5914 5915 5915 5916 5916 5916 5917 5917 5917 5918 5918 5918 5918 5918 5918
5891 5891 5891 5892 5892 5893 5893 5894 5895 5895 5895 5895 5895 5895 5895 5895 5894 5894 5895 5897 5899 5898 5895 5894 5895 5896 5898 5899 5899 5899 5899 5900 5899 5900 5900 5901 5902 5903 5903 5902 5903 5903 5903 5904 5904 5905 5906 5906 5906 5905 5905 5906 5906 5906 5907 5907 5907 5907 5907 5908 5909 5911 5912 5912 5913 5913 5914 5914 5915 5915 5915 5916 5916 5917 5917 5917 5917 5918 5918 5919 5919 5919 5919 5918 5918
5892 5892 5893 5893 5894 5894 5895 5895 5895 5895 5895 5895 5895 5895 5895 5895 5894 5895 5895 5897 5898 5897 5896 5896 5897 5898 5898 5898 5898 5898 5899 5900 5900 5900 5900 5900 5902 5902 5903 5902 5903 5904 5904 5904 5905 5905 5906 5906 5907 5906 5906 5907 5907 5907 5908 5908 5908 5908 5908 5909 5909 5911 5912 5912 5913 5914 5915 5915 5915 5916 5916 5916 5917 5917 5918 5918 5918 5919 5919 5919 5919 5919 5919 5919 5919
5892 5893 5893 5894 5895 5895 5895 5896 5896 5896 5896 5895 5895 5895 5895 5895 5895 5895 5895 5896 5898 5898 5897 5897 5898 5898 5897 5897 5898 5898 5899 5899 5900 5900 5899 5900 5902 5902 5903 5903 5903 5904 5905 5905 5905 5905 5906 5906 5907 5906 5906 5907 5908 5908 5909 5909 5910 5910 5910 5910 5911 5911 5912 5913 5914 5914 5915 5915 5916 5916 5917 5917 5917 5918 5918 5919 5919 5920 5920 5920 5920 5920 5920 5920 5920
5892 5893 5893 5894 5895 5895 5895 5896 5896 5896 5896 5895 5895 5895 5895 5895 5895 5895 5895 5896 5897 5897 5897 5897 5898 5898 5897 5897 5898 5898 5898 5900 5900 5900 5899 5900 5902 5902 5903 5904 5904 5905 5905 5906 5906 5906 5906 5906 5907 5907 5906 5907 5909 5910 5910 5910 5911 5911 5911 5912 5912 5913 5913 5913 5914 5915 5915 5916 5916 5917 5917 5918 5918 5919 5919 5920 5920 5920 5921 5921 5921 5921 5921 5921 5921
5892 5893 5893 5894 5894 5895 5895 5896 5896 5896 5896 5895 5895 5894 5895 5896 5896 5895 5894 5896 5896 5895 5896 5897 5898 5897 5898 5898 5898 5898 5898 5900 5902 5901 5899 5899 5901 5902 5903 5904 5905 5906 5906 5907 5907 5908 5907 5907 5907 5907 5907 5909 5910 5911 5911 5912 5912 5912 5913 5913 5914 5914 5914 5914 5915 5915 5916 5916 5917 5917 5918 5919 5919 5920 5920 5920 5921 5921 5921 5922 5922 5922 5922 5922 5922
5893 5894 5894 5894 5895 5895 5896 5896 5896 5896 5896 5895 5895 5894 5894 5896 5896 5895 5895 5896 5895 5894 5896 5897 5897 5897 5898 5899 5898 5898 5900 5901 5902 5902 5899 5899 5902 5903 5904 5905 5906 5907 5907 5908 5908 5908 5908 5908 5908 5908 5909 5911 5912 5912 5913 5913 5913 5913 5914 5914 5915 5915 5915 5916 5916 5916 5917 5917 5918 5918 5919 5919 5920 5920 5921 5921 5921 5921 5922 5922 5922 5922 5922 5922 5923
5894 5895 5895 5895 5896 5896 5896 5897 5897 5896 5896 5895 5895 5894 5895 5897 5898 5895 5895 5896 5895 5895 5896 5897 5897 5897 5897 5899 5900 5900 5901 5902 5902 5901 5899 5901 5903 5904 5905 5906 5907 5908 5908 5909 5908 5908 5910 5910 5910 5910 5911 5912 5913 5914 5914 5914 5914 5915 5915 5916 5916 5916 5916 5917 5917 5917 5918 5918 5919 5919 5920 5920 5921 5921 5921 5922 5922 5922 5922 5923 5923 5923 5923 5923 5923
5895 5896 5897 5897 5897 5897 5898 5898 5898 5897 5896 5896 5896 5895 5895 5899 5899 5896 5896 5897 5897 5897 5897 5897 5898 5898 5898 5900 5901 5901 5902 5902 5901 5900 5900 5902 5904 5905 5906 5907 5908 5909 5909 5909 5909 5909 5910 5910 5910 5912 5913 5914 5914 5915 5915 5916 5916 5916 5916 5917 5917 5918 5918 5918 5918 5918 5919 5920 5920 5920 5921 5921 5922 5922 5922 5922 5923 5923 5923 5924 5924 5924 5924 5924 5924
5897 5898 5898 5898 5899 5899 5899 5899 5899 5898 5897 5897 5896 5896 5895 5899 5901 5898 5897 5898 5899 5898 5897 5897 5899 5899 5899 5901 5902 5901 5902 5901 5900 5900 5902 5904 5905 5906 5907 5908 5909 5910 5910 5911 5911 5911 5911 5911 5912 5914 5915 5915 5915 5916 5916 5916 5917 5917 5918 5918 5919 5919 5919 5919 5919 5920 5920 5921 5921 5921 5922 5922 5922 5923 5923 5923 5924 5924 5924 5925 5925 5925 5925 5925 5925
5899 5899 5900 5900 5900 5900 5900 5900 5899 5899 5898 5898 5897 5896 5896 5900 5902 5899 5898 5899 5900 5900 5898 5898 5899 5900 5900 5901 5902 5901 5901 5900 5900 5902 5904 5905 5906 5908 5908 5909 5910 5910 5911 5912 5912 5912 5912 5913 5915 5915 5916 5916 5917 5917 5917 5918 5918 5919 5919 5920 5920 5920 5921 5921 5921 5922 5922 5922 5922 5922 5923 5923 5923 5923 5924 5924 5925 5925 5925 5926 5926 5926 5926 5927 5927
5900 5900 5900 5900 5901 5901 5901 5901 5900 5900 5900 5900 5899 5897 5897 5900 5903 5901 5899 5898 5900 5901 5900 5900 5901 5902 5901 5902 5902 5901 5901 5901 5903 5904 5905 5907 5908 5909 5909 5910 5910 5911 5912 5912 5912 5913 5914 5915 5916 5916 5916 5917 5918 5918 5919 5919 5920 5920 5921 5921 5922 5922 5922 5922 5922 5923 5923 5923 5923 5923 5923 5924 5924 5924 5925 5925 5926 5926 5926 5927 5927 5927 5928 5928 5928
5901 5901 5901 5901 5902 5902 5902 5902 5901 5901 5901 5901 5900 5898 5898 5900 5902 5902 5899 5898 5900 5901 5902 5903 5904 5904 5903 5903 5903 5902 5903 5903 5905 5906 5907 5908 5909 5910 5911 5911 5912 5912 5913 5913 5914 5915 5915 5916 5916 5917 5917 5918 5919 5919 5920 5921 5922 5922 5923 5923 5923 5923 5923 5923 5923 5924 5924 5924 5924 5924 5924 5925 5925 5925 5926 5926 5927 5927 5928 5928 5928 5928 5929 5929 5929
5902 5902 5902 5903 5903 5903 5903 5902 5902 5902 5903 5903 5901 5899 5898 5900 5902 5903 5902 5900 5900 5901 5902 5904 5904 5904 5903 5903 5904 5904 5905 5906 5907 5908 5908 5909 5910 5911 5912 5913 5914 5914 5915 5915 5915 5916 5917 5917 5918 5918 5919 5920 5920 5921 5922 5922 5923 5924 5924 5924 5924 5924 5924 5924 5924 5925 5925 5925 5925 5925 5926 5926 5926 5927 5927 5927 5928 5928 5929 5929 5929 5929 5930 5930 5930
5903 5903 5903 5904 5904 5904 5904 5903 5903 5903 5904 5904 5903 5901 5900 5902 5903 5904 5905 5903 5902 5902 5903 5904 5905 5904 5904 5904 5905 5906 5907 5907 5908 5909 5910 5911 5912 5913 5914 5915 5915 5916 5916 5916 5917 5917 5918 5919 5920 5920 5921 5921 5922 5923 5923 5924 5924 5925 5925 5925 5925 5925 5925 5925 5926 5926 5926 5926 5926 5927 5927 5927 5928 5928 5928 5928 5929 5929 5930 5930 5930 5931 5931 5931 5931
5904 5904 5904 5904 5905 5905 5905 5904 5904 5904 5905 5905 5904 5903 5902 5902 5903 5905 5906 5905 5903 5902 5904 5906 5906 5905 5905 5906 5907 5907 5908 5908 5909 5910 5911 5913 5914 5915 5915 5916 5916 5917 5917 5917 5918 5919 5920 5921 5922 5922 5922 5923 5924 5924 5925 5925 5926 5926 5926 5926 5926 5926 5927 5927 5927 5927 5928 5928 5928 5928 5928 5929 5929 5929 5929 5930 5930 5930 5931 5931 5932 5932 5932 5932 5932
5905 5905 5905 5905 5905 5906 5906 5905 5905 5906 5906 5906 5905 5905 5904 5903 5903 5904 5906 5905 5904 5904 5905 5907 5907 5906 5907 5907 5908 5909 5909 5910 5911 5912 5914 5915 5916 5916 5916 5917 5917 5918 5918 5919 5920 5921 5922 5923 5923 5924 5924 5925 5925 5926 5926 5927 5927 5927 5927 5927 5928 5928 5928 5928 5928 5929 5929 5929 5929 5929 5930 5930 5930 5930 5931 5931 5931 5932 5932 5933 5933 5933 5933 5933 5933
5906 5906 5906 5906 5906 5906 5907 5907 5907 5907 5907 5907 5907 5906 5906 5905 5904 5905 5905 5905 5906 5907 5908 5908 5908 5907 5907 5908 5909 5911 5911 5912 5913 5914 5915 5916 5916 5917 5918 5918 5918 5919 5920 5921 5921 5922 5923 5924 5925 5925 5926 5926 5926 5927 5927 5928 5928 5928 5929 5929 5929 5929 5929 5930 5930 5930 5931 5931 5931 5931 5931 5931 5932 5932 5932 5932 5933 5933 5934 5934 5934 5935 5934 5934 5934
5907 5907 5907 5907 5906 5907 5907 5908 5908 5909 5909 5908 5908 5908 5907 5907 5906 5906 5906 5907 5908 5910 5910 5909 5909 5909 5909 5910 5912 5913 5914 5914 5915 5916 5916 5917 5917 5918 5919 5919 5920 5921 5921 5922 5923 5924 5925 5925 5926 5926 5927 5927 5928 5928 5929 5929 5929 5930 5930 5931 5931 5931 5931 5931 5932 5932 5932 5932 5932 5932 5932 5933 5933 5933 5933 5934 5934 5935 5935 5935 5936 5936 5935 5935 5935
5908 5908 5908 5907 5907 5907 5908 5909 5909 5910 5910 5910 5909 5909 5909 5908 5908 5907 5907 5908 5909 5910 5910 5911 5911 5911 5912 5913 5914 5915 5915 5915 5916 5917 5917 5918 5919 5919 5920 5921 5922 5923 5923 5924 5925 5926 5926 5927 5927 5928 5928 5929 5929 5930 5930 5931 5931 5931 5932 5932 5932 5932 5933 5933 5934 5934 5934 5934 5934 5934 5934 5934 5934 5935 5935 5935 5936 5936 5937 5937 5937 5937 5937 5936 5935
5909 5909 5909 5908 5908 5908 5909 5909 5910 5910 5911 5911 5911 5910 5910 5910 5909 5909 5908 5908 5908 5909 5910 5911 5912 5913 5914 5915 5915 5915 5915 5916 5917 5917 5918 5919 5920 5921 5921 5922 5923 5924 5925 5926 5926 5927 5927 5928 5929 5929 5930 5930 5931 5931 5932 5932 5933 5933 5933 5933 5934 5934 5935 5935 5935 5935 5935 5935 5935 5935 5935 5936 5936 5936 5937 5937 5937 5938 5938 5938 5938 5938 5938 5937 5936
5910 5909 5910 5910 5909 5909 5910 5910 5910 5911 5911 5911 5912 5911 5911 5911 5911 5910 5910 5909 5909 5910 5911 5912 5913 5914 5915 5915 5915 5915 5916 5917 5917 5918 5919 5920 5921 5922 5923 5924 5925 5925 5926 5927 5927 5928 5929 5929 5930 5931 5931 5931 5932 5933 5934 5934 5934 5934 5935 5935 5935 5936 5936 5936 5937 5937 5937 5937 5937 5937 5937 5937 5937 5937 5938 5938 5939 5939 5939 5939 5939 5939 5938 5938 5937
5911 5910 5911 5911 5911 5910 5910 5911 5911 5911 5912 5912 5912 5912 5912 5912 5912 5911 5911 5911 5911 5912 5912 5913 5914 5915 5915 5916 5916 5917 5917 5918 5919 5920 5921 5922 5923 5923 5924 5925 5926 5927 5928 5928 5929 5929 5930 5930 5931 5932 5932 5933 5933 5934 5935 5936 5936 5936 5936 5937 5937 5938 5938 5938 5938 5938 5938 5938 5938 5938 5938 5938 5939 5939 5939 5940 5940 5940 5940 5940 5940 5939 5939 5938 5938
5912 5912 5912 5912 5912 5912 5911 5911 5912 5912 5912 5913 5913 5913 5913 5913 5913 5913 5913 5913 5913 5914 5914 5915 5915 5916 5917 5917 5918 5918 5919 5920 5920 5921 5922 5923 5924 5925 5926 5927 5928 5928 5929 5930 5930 5930 5931 5931 5932 5933 5933 5934 5935 5936 5937 5937 5937 5938 5938 5939 5939 5939 5940 5940 5940 5940 5940 5940 5940 5940 5940 5940 5940 5941 5941 5941 5941 5941 5941 5941 5941 5940 5939 5939 5938
5912 5913 5913 5913 5913 5913 5913 5913 5913 5913 5913 5913 5914 5914 5914 5915 5915 5915 5915 5915 5916 5916 5916 5917 5917 5918 5918 5919 5920 5921 5921 5922 5923 5923 5924 5925 5926 5927 5928 5929 5929 5930 5930 5931 5931 5931 5932 5932 5933 5934 5934 5935 5936 5937 5938 5939 5939 5939 5940 5940 5941 5941 5941 5941 5942 5942 5941 5941 5941 5941 5941 5942 5942 5942 5942 5942 5942 5942 5942 5942 5941 5941 5940 5939 5939
5913 5913 5913 5914 5914 5914 5914 5914 5914 5914 5914 5915 5915 5915 5916 5916 5917 5917 5917 5917 5918 5918 5918 5919 5919 5920 5920 5921 5922 5923 5924 5924 5925 5925 5926 5927 5927 5928 5929 5930 5931 5931 5931 5932 5933 5933 5933 5934 5934 5935 5935 5936 5937 5938 5940 5940 5941 5941 5941 5942 5942 5943 5943 5943 5943 5943 5943 5943 5943 5943 5943 5943 5943 5943 5943 5943 5943 5943 5943 5942 5942 5941 5941 5940 5939
5913 5914 5914 5914 5915 5915 5915 5915 5916 5916 5916 5916 5916 5917 5917 5917 5918 5918 5918 5919 5919 5920 5920 5921 5921 5922 5922 5923 5924 5925 5925 5926 5927 5927 5928 5929 5929 5930 5931 5931 5932 5932 5933 5933 5934 5934 5935 5935 5935 5936 5937 5937 5939 5940 5941 5941 5942 5942 5943 5943 5944 5944 5944 5944 5945 5945 5945 5944 5944 5944 5944 5944 5944 5944 5944 5944 5944 5944 5943 5943 5943 5942 5941 5941 5940
5914 5914 5915 5915 5915 5916 5916 5917 5917 5917 5917 5917 5917 5918 5918 5919 5919 5919 5920 5921 5921 5922 5922 5923 5923 5924 5924 5925 5925 5926 5927 5928 5928 5929 5930 5930 5931 5931 5932 5932 5933 5933 5934 5935 5935 5936 5936 5936 5937 5937 5938 5938 5939 5940 5941 5942 5943 5943 5944 5944 5945 5945 5945 5946 5946 5946 5946 5946 5946 5945 5945 5945 5945 5945 5945 5945 5945 5944 5944 5944 5943 5943 5942 5941 5941
5914 5915 5915 5916 5916 5917 5918 5918 5918 5918 5919 5919 5919 5919 5920 5920 5920 5921 5922 5922 5923 5923 5924 5925 5925 5925 5926 5926 5927 5928 5928 5929 5930 5930 5931 5932 5932 5932 5933 5934 5934 5935 5935 5936 5936 5937 5937 5937 5938 5938 5938 5939 5940 5941 5942 5943 5944 5944 5945 5945 5946 5946 5946 5947 5947 5947 5947 5947 5947 5946 5946 5946 5946 5946 5946 5946 5945 5945 5945 5944 5944 5943 5942 5942 5941
5915 5915 5916 5917 5917 5918 5919 5919 5919 5920 5920 5920 5921 5921 5921 5921 5922 5922 5923 5924 5924 5925 5925 5926 5926 5927 5927 5928 5928 5929 5930 5930 5931 5931 5932 5933 5933 5934 5934 5935 5935 5936 5936 5937 5938 5938 5938 5938 5939 5939 5939 5940 5941 5942 5943 5944 5945 5945 5946 5946 5947 5947 5947 5948 5948 5948 5948 5948 5948 5947 5947 5947 5947 5947 5946 5946 5946 5946 5945 5945 5944 5944 5943 5942 5941
5915 5916 5917 5918 5918 5919 5920 5920 5921 5921 5921 5922 5922 5922 5922 5923 5923 5924 5924 5925 5925 5926 5926 5927 5928 5928 5929 5929 5930 5930 5931 5931 5932 5932 5933 5934 5934 5935 5935 5936 5936 5937 5937 5938 5939 5939 5939 5939 5940 5940 5940 5940 5941 5942 5943 5944 5945 5946 5947 5948 5948 5948 5949 5949 5949 5949 5949 5949 5949 5948 5948 5948 5947 5947 5947 5947 5946 5946 5946 5945 5945 5944 5943 5942 5942
5915 5916 5918 5918 5919 5920 5920 5921 5922 5922 5922 5923 5923 5923 5923 5924 5924 5925 5925 5926 5926 5927 5928 5928 5929 5929 5930 5931 5931 5931 5932 5933 5933 5934 5934 5935 5935 5936 5937 5937 5937 5938 5938 5939 5939 5940 5940 5940 5940 5941 5941 5941 5942 5943 5944 5945 5945 5946 5947 5948 5949 5949 5950 5950 5950 5950 5950 5949 5949 5949 5949 5948 5948 5948 5948 5947 5947 5946 5946 5945 5945 5944 5943 5943 5942
5916 5917 5918 5919 5920 5921 5921 5922 5923 5923 5923 5924 5924 5924 5924 5925 5925 5926 5926 5927 5928 5928 5928 5929 5930 5930 5931 5932 5932 5932 5933 5934 5935 5935 5935 5936 5936 5937 5937 5938 5938 5939 5939 5940 5940 5940 5940 5941 5941 5942 5942 5942 5942 5943 5944 5945 5946 5947 5948 5949 5950 5950 5950 5950 5950 5950 5950 5950 5950 5949 5949 5949 5949 5948 5948 5948 5947 5947 5946 5946 5945 5944 5944 5943 5942
5916 5917 5918 5919 5920 5921 5922 5923 5924 5924 5925 5925 5926 5926 5926 5926 5926 5927 5928 5928 5929 5929 5929 5930 5930 5931 5932 5933 5933 5933 5934 5935 5935 5936 5936 5937 5937 5937 5938 5939 5939 5940 5940 5940 5941 5941 5941 5942 5942 5943 5943 5943 5943 5943 5944 5945 5946 5947 5948 5949 5950 5951 5951 5951 5951 5951 5951 5950 5950 5950 5949 5949 5949 5949 5948 5948 5948 5947 5946 5946 5945 5945 5944 5943 5942
5917 5918 5918 5919 5921 5922 5923 5923 5924 5925 5926 5926 5927 5927 5927 5928 5928 5928 5929 5929 5930 5930 5930 5931 5932 5932 5933 5933 5934 5934 5935 5936 5936 5937 5937 5938 5938 5938 5938 5939 5940 5940 5941 5941 5941 5942 5942 5942 5943 5943 5944 5944 5944 5944 5945 5945 5946 5947 5949 5950 5951 5952 5952 5952 5951 5951 5951 5951 5950 5950 5950 5950 5949 5949 5949 5948 5948 5947 5947 5946 5945 5945 5944 5943 5942
5918 5918 5919 5920 5921 5922 5923 5924 5925 5926 5926 5927 5928 5928 5929 5929 5930 5930 5930 5930 5930 5931 5931 5932 5933 5934 5934 5934 5935 5935 5936 5937 5937 5938 5938 5938 5939 5939 5939 5939 5940 5940 5941 5941 5942 5942 5943 5943 5943 5944 5944 5945 5945 5945 5945 5946 5947 5948 5949 5950 5951 5952 5952 5952 5952 5952 5952 5951 5951 5951 5950 5950 5950 5949 5949 5948 5948 5947 5947 5946 5946 5945 5944 5943 5942
5918 5919 5920 5920 5921 5923 5923 5924 5925 5926 5927 5928 5928 5929 5929 5930 5931 5931 5931 5931 5932 5932 5932 5933 5934 5935 5935 5935 5936 5936 5937 5937 5938 5938 5939 5939 5939 5939 5940 5940 5940 5941 5941 5942 5942 5943 5943 5944 5944 5945 5945 5945 5945 5946 5946 5947 5947 5948 5950 5951 5951 5952 5952 5952 5952 5952 5952 5952 5951 5951 5951 5950 5950 5949 5949 5948 5948 5947 5947 5946 5946 5945 5944 5943 5942
5919 5920 5920 5921 5922 5923 5924 5925 5925 5926 5927 5928 5928 5929 5929 5930 5931 5932 5932 5932 5933 5933 5933 5934 5935 5936 5936 5936 5937 5937 5938 5938 5938 5939 5939 5940 5940 5940 5940 5941 5941 5942 5942 5942 5943 5943 5944 5945 5945 5945 5945 5946 5946 5946 5947 5947 5948 5949 5950 5951 5951 5952 5952 5952 5952 5953 5952 5952 5952 5951 5951 5951 5950 5950 5949 5948 5948 5947 5947 5946 5945 5945 5944 5943 5942
5919 5920 5921 5922 5923 5924 5924 5925 5926 5926 5927 5928 5928 5929 5930 5931 5931 5932 5933 5933 5933 5934 5934 5935 5936 5937 5937 5937 5938 5938 5938 5938 5939 5939 5940 5940 5941 5941 5941 5941 5942 5942 5943 5943 5944 5944 5945 5945 5946 5946 5946 5946 5947 5947 5947 5948 5949 5949 5950 5951 5951 5951 5952 5952 5952 5952 5952 5952 5952 5952 5951 5951 5950 5950 5949 5948 5948 5947 5946 5946 5945 5945 5944 5943 5943
5920 5921 5922 5923 5923 5924 5925 5926 5927 5927 5928 5928 5929 5929 5930 5931 5932 5933 5933 5934 5934 5935 5936 5937 5937 5938 5938 5938 5939 5939 5939 5939 5940 5940 5941 5941 5941 5942 5942 5942 5942 5943 5944 5944 5945 5945 5946 5946 5946 5947 5947 5947 5947 5948 5948 5949 5949 5950 5950 5951 5951 5951 5952 5952 5952 5952 5952 5952 5952 5952 5951 5951 5950 5950 5949 5949 5948 5947 5946 5946 5945 5945 5944 5944 5943
5920 5921 5922 5923 5924 5925 5926 5927 5927 5928 5929 5929 5930 5930 5931 5932 5933 5934 5934 5935 5935 5936 5937 5938 5938 5939 5939 5939 5939 5940 5940 5940 5941 5941 5941 5942 5942 5942 5942 5942 5943 5944 5944 5945 5945 5946 5946 5947 5947 5947 5947 5948 5948 5948 5949 5949 5950 5950 5951 5951 5951 5952 5952 5952 5952 5952 5952 5952 5952 5952 5951 5951 5950 5950 5949 5949 5948 5947 5947 5946 5946 5945 5945 5944 5943
5920 5921 5922 5924 5925 5926 5927 5927 5928 5929 5930 5930 5931 5932 5932 5933 5933 5934 5935 5936 5936 5937 5938 5939 5939 5939 5940 5940 5940 5940 5941 5941 5942 5942 5942 5943 5943 5943 5943 5943 5944 5944 5945 5945 5945 5946 5946 5947 5947 5947 5948 5948 5948 5949 5949 5950 5950 5950 5951 5951 5951 5952 5952 5952 5952 5952 5952 5952 5951 5951 5951 5951 5950 5950 5949 5949 5948 5948 5947 5947 5946 5946 5945 5944 5943
5920 5921 5922 5923 5925 5926 5927 5928 5929 5929 5930 5931 5932 5932 5933 5933 5934 5934 5935 5936 5937 5938 5938 5939 5939 5940 5940 5941 5941 5941 5942 5942 5943 5943 5943 5943 5944 5944 5944 5944 5944 5945 5945 5946 5946 5946 5946 5947 5947 5948 5948 5948 5949 5949 5949 5950 5950 5950 5951 5951 5951 5951 5952 5952 5952 5952 5951 5951 5951 5951 5951 5951 5950 5950 5950 5949 5949 5948 5948 5947 5947 5946 5945 5944 5943
5920 5921 5922 5923 5924 5926 5927 5928 5929 5930 5931 5931 5932 5933 5933 5934 5935 5935 5936 5937 5938 5938 5938 5939 5940 5940 5941 5941 5941 5942 5943 5943 5943 5944 5944 5944 5944 5945 5945 5945 5945 5946 5946 5946 5947 5947 5947 5947 5948 5948 5949 5949 5949 5949 5950 5950 5950 5950 5951 5951 5951 5951 5952 5952 5952 5952 5951 5951 5951 5951 5951 5951 5950 5950 5950 5949 5949 5948 5948 5947 5946 5946 5945 5944 5943
5920 5921 5922 5923 5924 5925 5927 5928 5929 5930 5931 5932 5932 5933 5934 5934 5935 5936 5937 5938 5938 5939 5939 5939 5939 5940 5941 5941 5942 5942 5943 5943 5943 5944 5944 5944 5945 5945 5945 5946 5946 5947 5947 5947 5947 5947 5947 5948 5948 5948 5949 5949 5949 5950 5950 5950 5950 5951 5951 5951 5951 5952 5952 5952 5952 5951 5951 5951 5951 5951 5951 5951 5950 5950 5949 5949 5948 5948 5947 5947 5946 5945 5945 5944 5943
5920 5921 5922 5922 5923 5925 5927 5928 5929 5930 5931 5932 5932 5933 5934 5935 5935 5936 5937 5938 5938 5939 5939 5940 5940 5940 5941 5942 5942 5942 5943 5943 5944 5944 5945 5945 5945 5945 5946 5946 5947 5947 5947 5947 5948 5948 5948 5948 5949 5949 5949 5950 5950 5950 5950 5950 5951 5951 5951 5952 5952 5952 5952 5952 5952 5951 5951 5951 5951 5951 5951 5951 5950 5950 5949 5949 5948 5947 5947 5946 5946 5945 5944 5944 5943